Погода в Здвинске

Погода в Здвинске : погода сейчас, прогноз погоды и архив. Всё, что Вы хотите узнать о погоде в Здвинске!

Хотите узнать прогноз погоды в Здвинске? Тогда Вам сюда: Погода в Здвинске

Поиск расширенной информации на нашем сайте:

Полезная информация: трубы 25 мм хром

Другие новости

Новости СМИ2

Главная страница сайта

Новости сайта

03.07.2017

Напоминаем, что на нашем специализированном сайте Метеоцентр.Азия вы можете получить высокодетализированные автоматические прогнозы погоды по пунктам России, СНГ и мира в авиационном формате (включающие направление и скорость ветра, видимость, явления погоды, количество и форму облачности, нижнюю и верхнюю границу облачности).

Рекомендуем: Стойка для печатной продукции

Погода в Здвинске - сегодня

Время (UTC), дата Ветер
(°,м/с) 
Видим.   Явления Облачность Т
(°С)
Тd
(°С)
f(%) Тe
(°С)
Pmin
(гПа)
dP
(гПа)
Po
(мм)
O2
(г/м3)
Тmin Tmax R s Состояние
почвы
06 18.06.18 330 (СЗ) 20000 м    8/0 средняя 
[Ac As]
+20.6 +12 58 +25  1002.1  -0.7  742  276           
09 18.06.18 010 (С) 20000 м    10/3 1000 м кучево-дожд., средняя 
[Cb cap|Ac und]
+21 +12.7 59 +26  1001.5  -0.5  741  275           
12 18.06.18 330 (СЗ) 20000 м    8/4 1000 м кучево-дожд., средняя 
[Cb cap|Ac As]
+20.3 +11.5 57 +24  1001.1  -0.4  741  276    +22       
15 18.06.18 300 (СЗ) 20000 м    5/5 600 м кучево-дожд. 
[Cb cap]
+15.5 +11.6 78 +20  1001.4  741  280           
18 18.06.18 320 (СЗ) 20000 м    6/3 600 м кучево-дожд., средняя 
[Cb cap|Ac As]
+13.7 +12.1 90 +19  1000.5  -0.9  740  282           
21 18.06.18 030 (СВ) 4000 м  дымка  10/0 средняя 
[Ac und]
+13.7 +12.1 90 +19  1000.5  -0.7  740  282           
00 19.06.18 тихо ()   0050 м  туман  ясно 
+12.8 +12.2 96 +17  999.8  740  282  +8.2        сухая 
03 19.06.18 030 (СВ) 20000 м  {ливн. осадки, туман}  8/8 600 м кучево-дожд. 
[Cb cap]
+15.4 +12.7 84 +21  997.6  -2  738  279           
06 19.06.18 010 (С) 20000 м  {ливн. осадки, туман}  8/8 600 м кучево-дожд. 
[Cb cap]
+16.6 +13.6 82 +24  995.4  -2.2  737  277           
09 19.06.18 310 (СЗ) 10 км  слаб. ливневой дождь  10/10 600 м кучево-дожд. 
[Cb cap]
+14.9 +12.9 88 +20  995.8  0.3  737  279           
12 19.06.18 280 (З) 20000 м  в посл. час ливневой дождь  10/8 600 м кучево-дожд., средняя 
[Cb cap|Ac und]
+15.9 +12.5 80 +21  997.5  1.8  738  279    +17.2     
15 19.06.18 220 (ЮЗ) 20000 м  {ливн. осадки}  5/3 600 м кучево-дожд., средняя 
[Cb cap|Ac As]
+14.6 +11.8 83 +20  999.3  1.8  740  281           
18 19.06.18 190 (Ю) 20000 м  {ливн. осадки}  6/0 средняя 
[Ac As]
+14 +11.8 87 +19  1000.5  1.1  740  281           
21 19.06.18 190 (Ю) 20000 м    ясно 
+13 +11.4 90 +16  1000.9  0.4  741  283           
00 20.06.18 200 (Ю) 20000 м    5/0 средняя 
[Ac As]
+13.5 +11 85 +17  1001.7  0.8  741  283  +12.1    0.0    влажная 
03 20.06.18 200 (Ю) 20000 м    8/3 1000 м кучево-дожд., средняя 
[Cb cap|Ac As]
+18 +11.1 64 +22  1001.9  0.4  742  278           
06 20.06.18 220 (ЮЗ) 4{10}  20000 м    6/6 600 м кучево-дожд. 
[Cb cap]
+20.1 +10.9 55 +23  1002.3  0.4  742  276           
12 20.06.18 230 (ЮЗ) 5{11}  20000 м    8/4 600 м кучево-дожд., средняя, верхняя 
[Cb cap|Ac As|Ci fib]
+21.7 +9.1 45 +22  1001.6  0.3  741  275    +22.5       
15 20.06.18 240 (ЮЗ) 20000 м  {ливн. осадки}  8/6 600 м кучево-дожд., средняя 
[Cb cap|Ac As]
+15.7 +11.9 78 +20  1002.4  0.6  742  280           
18 20.06.18 220 (ЮЗ) 20000 м  {ливн. осадки}  6/4 600 м кучево-дожд., средняя 
[Cb cap|Ac As]
+13.7 +11.4 86 +18  1002.7  0.2  742  283           
21 20.06.18 240 (ЮЗ) 20000 м    5/3 600 м кучево-дожд., средняя 
[Cb cap|Ac As]
+11.9 +10.2 89 +14  1003.3  0.5  742  285           
00 21.06.18 220 (ЮЗ) 20000 м    8/0 верхняя 
[Ci sp]
+12.8 +10.9 88 +16  1004.5  1.2  743  284  +10.8      влажная 
03 21.06.18 180 (Ю) 20000 м    8/0 верхняя 
[Ci fib]
+17.8 +12.4 71 +24  1005.1  0.8  744  279           
06 21.06.18 210 (ЮЗ) 20000 м    6/3 600 м кучево-дожд., средняя 
[Cb cap|Ac As]
+22.4 +11.5 50 +26  1004.9  744  275           
09 21.06.18 200 (Ю) 4{10}  20000 м    3/0 кучево-дожд. 
[Cb cap]
+25.1 +9.5 37 +26  1003.8  -1  743  273           
Время (UTC), дата Ветер
(°,м/с) 
Видим.   Явления Облачность Т
(°С)
Тd
(°С)
f(%) Тe
(°С)
Pmin
(гПа)
dP
(гПа)
Po
(мм)
O2
(г/м3)
Тmin Tmax R s Состояние
почвы

Для получения пояснительной информации подведите курсор к названию столбца.

ПОГОДА в Здвинске - архив

Всё, что Вы хотите узнать о погоде в Здвинске - удобно и подробно!

Выберите нужную дату (начиная с 1 января 2015* года) и нажмите кнопку "Найти".
Будут отображены архивные сводки погоды по пункту Здвинск, начиная с указанной даты.


Отображать данные в формате CSV (для использования в таблицах Excel)


Внимание! Наш архив погоды предназначен исключительно для личного некоммерческого использования в познавательных целях. Если Вам необходимы официальные справки о состоянии погоды (для производственных, юридических, коммерческих и т.п. целей), обращайтесь в органы Росгидромета.

*Примечание: данная дата относится к архиву по метеостанциям СССР (Россия, СНГ, Балтия).
Архив по метеостанциям Зарубежной Европы и Азии (кроме Китая) хранится 10 дней, по другим регионам земного шара (Китай, Африка, Америка, Австралия, Океания) - 1 день.

Здвинск - район местоположения метеостанции


Название, широта, долгота, высота метеостанции:
Здвинск 54.7°ш. 78.7°д. 113 м над ур. моря [Российская Федерация]

Дополнительная информация

В oтличие oт бoльшинства пoгoдных сайтoв мы публикуем пoдрoбную метеoинфoрмацию в детальнoм прoфессиoнальнoм фoрмате.

Характеристики температуры и влажнoсти вoздуха измеряются на высoте 2 м в тени вдали oт зданий и деревьев.
Скoрoсть ветра измеряется на высoте 10 м (на урoвне рoста челoвека скoрoсть ветра ниже в 1.5-2 раза). Если метеoстанция нахoдится в гoрoде или в лесу, тo скoрoсть ветра занижена на 2-4 м/с пo сравнению с oткрытым местoм. Скoрoсть ветра над акватoриями крупных рек и oзёр, а также на вершинах хoлмoв на 2-5 м/с выше, чем в oбычных услoвиях.
Атмoсфернoе давление в разных тoчках местнoсти мoжет значительнo oтличаться oт давления на метеoстанции, в зависимoсти oт услoвий рельефа (при пoдъёме на 10 м давление пoнижается примернo на 1 мм рт.ст.).